Weather History for Kiruna, Sweden

Change the Weather History Date:

Monday, February 18, 2013

  Actual Average Record
Temperature  
Mean Temperature 14 °F -  
Max Temperature 24 °F - - ()
Min Temperature 5 °F - - ()
Degree Days  
Heating Degree Days 50    
Moisture  
Dew Point 16 °F    
Average Humidity 87    
Maximum Humidity 100    
Minimum Humidity 80    
Precipitation  
Precipitation 0.00 in - - ()
Sea Level Pressure  
Sea Level Pressure 30.15 in    
Wind  
Wind Speed 5 mph ()    
Max Wind Speed 13 mph    
Max Gust Speed -    
Visibility 5.7 miles    
Events Snow    
T = Trace of Precipitation, MM = Missing Value Source: Averaged Metar Reports

Daily Weather History Graph

Daily Weather History Graph

Search for Another Location

Airport:

Trip Planner

Search our weather history database for the weather conditions in past years. The results will help you decide how hot, cold, wet, or windy it might be!

Date:

Astronomy

Feb. 18, 2013 Rise Set
Actual Time 7:42 AM CET 4:03 PM CET
Civil Twilight 6:43 AM CET 5:03 PM CET
Nautical Twilight 5:38 AM CET 6:08 PM CET
Astronomical Twilight 4:34 AM CET 7:12 PM CET
Moon 7:48 AM CET (2/18) 3:50 AM CET (2/18)
Length of Visible Light 10h 20m
Length of Day
8h 21m
First Quarter, 56% of the Moon is Illuminated
Feb 18
First Quarter
Feb 25
Full
Mar 4
Last Quarter
Mar 11
New
Mar 19
First Quarter

Hourly Weather History & Observations

Time (CET) Temp. Windchill Dew Point Humidity Pressure Visibility Wind Dir Wind Speed Gust Speed Precip Events Conditions
12:20 AM 5.0 °F - 3.2 °F 92% 30.04 in 6.2 mi Calm Calm - N/A   Unknown
12:50 AM 5.0 °F - 1.4 °F 85% 30.04 in 6.2 mi South 2.3 mph - N/A   Scattered Clouds
1:20 AM 6.8 °F - 3.2 °F 85% 30.04 in 6.2 mi Variable 2.3 mph - N/A   Overcast
1:50 AM 5.0 °F - 3.2 °F 92% 30.04 in 6.2 mi SSW 2.3 mph - N/A Snow Light Snow
2:20 AM 10.4 °F - 8.6 °F 92% 30.04 in 5.6 mi Calm Calm - N/A Snow Light Snow
2:50 AM 10.4 °F - 8.6 °F 92% 30.06 in 6.2 mi Variable 1.2 mph - N/A Snow Snow Grains
3:20 AM 15.8 °F 10.2 °F 15.8 °F 100% 30.06 in 6.2 mi NNE 3.5 mph - N/A   Overcast
3:50 AM 17.6 °F 9.3 °F 15.8 °F 93% 30.06 in 5.6 mi North 5.8 mph - N/A Snow Snow Grains
4:20 AM 17.6 °F 6.4 °F 15.8 °F 93% 30.06 in 5.0 mi North 9.2 mph - N/A Snow Snow Grains
4:50 AM 19.4 °F 11.5 °F 17.6 °F 93% 30.06 in - NNW 5.8 mph - N/A Snow Light Snow
5:20 AM 19.4 °F - 17.6 °F 93% 30.06 in 5.6 mi Variable 1.2 mph - N/A Snow Light Snow
5:50 AM 17.6 °F - 15.8 °F 93% 30.06 in 3.1 mi Variable 2.3 mph - N/A Snow Light Snow
6:20 AM 17.6 °F - 17.6 °F 100% 30.06 in 1.7 mi Variable 2.3 mph - N/A Snow Light Snow
6:50 AM 19.4 °F 8.6 °F 17.6 °F 93% 30.06 in 5.6 mi North 9.2 mph - N/A Snow Light Snow
7:20 AM 21.2 °F 12.6 °F 19.4 °F 93% 30.09 in 3.7 mi North 6.9 mph - N/A Snow Light Snow
7:50 AM 19.4 °F 10.4 °F 17.6 °F 93% 30.09 in 1.7 mi North 6.9 mph - N/A Snow Light Snow
8:20 AM 19.4 °F 12.8 °F 17.6 °F 93% 30.09 in 2.8 mi North 4.6 mph - N/A Snow Light Snow
8:50 AM 21.2 °F 14.9 °F 19.4 °F 93% 30.09 in - North 4.6 mph - N/A Snow Light Snow
9:20 AM 21.2 °F 16.4 °F 19.4 °F 93% 30.12 in - North 3.5 mph - N/A Snow Light Snow
9:50 AM 23.0 °F 17.0 °F 21.2 °F 93% 30.12 in 5.0 mi North 4.6 mph - N/A Snow Light Snow
10:20 AM 23.0 °F 14.7 °F 21.2 °F 93% 30.12 in 6.2 mi North 6.9 mph - N/A   Overcast
10:50 AM 23.0 °F 13.9 °F 21.2 °F 93% 30.12 in 6.2 mi North 8.1 mph - N/A   Overcast
11:20 AM 24.8 °F 16.1 °F 21.2 °F 86% 30.15 in 6.2 mi North 8.1 mph - N/A   Overcast
11:50 AM 24.8 °F 16.1 °F 21.2 °F 86% 30.15 in 6.2 mi North 8.1 mph - N/A Snow Snow Grains
12:20 PM 24.8 °F 14.6 °F 19.4 °F 80% 30.15 in 6.2 mi North 10.4 mph - N/A Snow Light Snow
12:50 PM 24.8 °F 14.0 °F 19.4 °F 80% 30.15 in 6.2 mi North 11.5 mph - N/A Snow Light Snow
1:20 PM 24.8 °F 14.0 °F 19.4 °F 80% 30.15 in 6.2 mi North 11.5 mph - N/A   Overcast
1:50 PM 24.8 °F 14.0 °F 19.4 °F 80% 30.18 in 6.2 mi North 11.5 mph - N/A   Overcast
2:20 PM 23.0 °F 11.1 °F 19.4 °F 86% 30.18 in 6.2 mi North 12.7 mph - N/A   Overcast
2:50 PM 23.0 °F 11.7 °F 19.4 °F 86% 30.18 in 6.2 mi North 11.5 mph - N/A   Overcast
3:20 PM 23.0 °F 11.7 °F 19.4 °F 86% 30.18 in 6.2 mi North 11.5 mph - N/A   Overcast
3:50 PM 23.0 °F 12.4 °F 17.6 °F 80% 30.18 in 6.2 mi North 10.4 mph - N/A   Overcast
4:20 PM 23.0 °F 11.7 °F 17.6 °F 80% 30.21 in 6.2 mi North 11.5 mph - N/A   Overcast
4:50 PM 23.0 °F 13.1 °F 17.6 °F 80% 30.21 in 6.2 mi North 9.2 mph - N/A   Overcast
5:20 PM 23.0 °F 12.4 °F 17.6 °F 80% 30.21 in 6.2 mi North 10.4 mph - N/A   Overcast
5:50 PM 23.0 °F 13.1 °F 17.6 °F 80% 30.21 in 6.2 mi NNW 9.2 mph - N/A   Overcast
6:20 PM 23.0 °F 13.9 °F 17.6 °F 80% 30.24 in 6.2 mi North 8.1 mph - N/A   Overcast
6:50 PM 23.0 °F 13.9 °F 17.6 °F 80% 30.24 in 6.2 mi North 8.1 mph - N/A   Overcast
7:20 PM 21.2 °F 11.7 °F 17.6 °F 86% 30.24 in 6.2 mi North 8.1 mph - N/A   Overcast
7:50 PM 21.2 °F 13.6 °F 17.6 °F 86% 30.24 in 6.2 mi North 5.8 mph - N/A   Overcast
8:20 PM 21.2 °F 11.7 °F 17.6 °F 86% 30.24 in 6.2 mi North 8.1 mph - N/A   Overcast
8:50 PM 21.2 °F 13.6 °F 17.6 °F 86% 30.27 in 6.2 mi North 5.8 mph - N/A   Overcast
9:20 PM 21.2 °F 12.6 °F 17.6 °F 86% 30.27 in 6.2 mi North 6.9 mph - N/A   Overcast
9:50 PM 21.2 °F 12.6 °F 17.6 °F 86% 30.27 in 6.2 mi NNW 6.9 mph - N/A   Overcast
10:20 PM 21.2 °F 13.6 °F 15.8 °F 80% 30.27 in 6.2 mi North 5.8 mph - N/A   Overcast
10:50 PM 21.2 °F - 15.8 °F 80% 30.27 in 6.2 mi Variable 2.3 mph - N/A   Overcast
11:20 PM 21.2 °F 16.4 °F 15.8 °F 80% 30.30 in 6.2 mi North 3.5 mph - N/A   Overcast